Showing default

FLAMINGO-1, 67391

Orbit data source: Space-Track

FLAMINGO-1, 67391 is a German payload satellite in SSO that was launched on Sun, 11 Jan 2026 UTC via an FALCON 9 launch vehicle from the Air Force Western Test Range (AFWTR). Payload-class satellites include a variety of spacecraft equipped with specific instruments for various scientific and technological missions. These include communications satellites like Starlink; space stations such as the ISS; scientific satellites like the Hubble; Earth observation satellites from companies like Planet Labs, Umbra, and HawkEye 360; GPS; miniature CubeSats for education and research; and military/defense satellites.

Loading next visibility...
Identifier
67391, 2026-004AE
Orbit
SSO
Country
Flag of DEDE / GER
Related business
Manufacturer
Endurosat
Mission
Operational Commercial Technology
Bus & Motor
ESPASAT, Unknown motor
Mass
~100 kg wet, ~100 kg dry
Launch date (UTC)
2026-01-11 (8 months ago)
Launch vehicle
FALCON 9
Launch site
Air Force Western Test Range (AFWTR)
Object type
Payload
Rocket body
Debris
Shape & HBR
Box, 1.0 m
Radar Cross Section
0.475 m², Medium (>0.1 m² and < 1m²)

Expand to show TLE details & history
Last TLE update: 11 hours ago

TLE from 11 hours ago
0 FLAMINGO-1
1 67391U 26004AE  26264.47590664  .00001227  00000-0  63802-4 0  9994
2 67391  97.4620 261.9757 0005848  10.2308 349.9044 15.17932513 38351
Epoch: 2026-09-21T11:25Z
TLE epoch observation values (Epoch: 2026-09-21T11:25:18.333Z)
Latitude
-0.00002°
Longitude
90.29412°
Altitude
511.208 km
Speed
7.61 km/s
True Right ascension
17h 27m 54s
True Declination
0° 00' 00"
Sunlit
Object was in daylight at epoch
Visualization orbit readout
Latitude
Unknown
Longitude
Unknown
Altitude
Unknown
Speed
Unknown
Apparent Right ascension
Unknown
Apparent Declination
Unknown
Sunlit
N/A
Visualization observer readout
Local Sidereal Time
15:39:13
Azimuth
Unknown
Elevation
Unknown
Doppler factor
Unknown
Orbital elements
Apogee altitude
513.089 km
Perigee altitude
505.033 km
Semi-major axis
6,887.198 km
Eccentricity
0.00058
Inclination
97.462°
RAAN
261.9757°
Arg. of periapsis
10.2308°
True anomaly
349.89264°
Mean anomaly
349.9044°
Eccentric anomaly
349.89852°
Mean motion
3.79734 °/min
Orbital period
94.8 mins
BSTAR
0.000063802
Loading maneuver chart data...
Computing Atmospheric mass density...
Loading historical data...
Loading historical data...
Loading historical data...
Loading historical data...
Loading historical data...
Loading historical data...
Loading historical data...

Documentation

Showing up to 5 results
|